PST,Max TemperatureF,Mean TemperatureF,Min TemperatureF,Max Dew PointF,MeanDew PointF,Min DewpointF,Max Humidity, Mean Humidity, Min Humidity, Max Sea Level PressureIn, Mean Sea Level PressureIn, Min Sea Level PressureIn, Max VisibilityMiles, Mean VisibilityMiles, Min VisibilityMiles, Max Wind SpeedMPH, Mean Wind SpeedMPH, Max Gust SpeedMPH,PrecipitationIn, CloudCover, Events, WindDirDegrees
2012-11-1,30,26,21,28,22,19,100,92,80,30.10,30.01,29.91,8,4,1,5,2,,0.00,8,Snow,330
2012-11-2,37,32,28,34,30,27,100,97,87,30.11,30.04,29.91,4,2,0,7,1,,0.00,6,Fog,210
2012-11-3,41,36,32,41,34,32,100,99,93,30.06,29.90,29.84,3,1,0,10,2,,0.00,7,Fog-Rain,343
2012-11-4,53,42,32,41,35,32,100,95,62,30.12,30.00,29.78,9,5,0,16,3,21,0.00,6,Fog-Rain,152
2012-11-5,46,35,24,34,29,25,100,91,46,30.34,30.18,30.00,9,7,1,7,3,,0.00,1,,163
2012-11-6,32,30,28,32,31,27,100,98,87,30.26,29.93,29.84,9,4,1,5,1,,0.00,8,Rain-Snow,290
2012-11-7,33,30,26,32,31,25,100,99,93,30.17,30.03,29.88,9,2,0,7,2,,0.00,8,Fog-Rain-Snow,322
2012-11-8,28,26,21,27,23,14,100,87,74,30.22,30.19,30.16,9,8,2,20,8,24,0.00,8,Snow,343
2012-11-9,24,19,14,14,10,9,80,71,54,30.25,30.19,30.16,9,9,9,15,11,20,0.00,5,Snow,334
2012-11-10,23,12,1,9,6,-2,92,80,54,30.35,30.29,30.25,9,9,7,9,2,,0.00,0,,157
2012-11-11,30,20,10,21,16,9,93,72,59,30.26,30.18,30.11,9,9,9,12,6,,0.00,5,Snow,156
2012-11-12,37,34,30,28,24,21,75,70,65,30.12,30.09,30.07,9,9,9,13,9,,0.00,8,Snow,152
2012-11-13,39,36,33,32,30,28,93,80,70,30.11,30.09,30.04,9,9,9,10,8,,0.00,8,Rain-Snow,142
2012-11-14,44,35,26,32,29,27,100,87,53,30.23,30.17,30.07,9,7,0,10,3,,0.00,3,Fog,156
2012-11-15,35,32,30,32,31,28,93,88,81,30.21,30.05,29.93,9,9,9,12,7,18,0.00,6,,166
2012-11-16,41,32,26,32,29,27,100,92,61,29.92,29.82,29.66,9,5,0,17,3,23,0.00,4,Fog,164
2012-11-17,51,44,37,37,34,28,87,68,47,29.63,29.34,29.21,9,8,3,28,14,37,0.00,6,Rain,164
2012-11-18,44,36,28,30,28,27,100,81,49,29.58,29.46,29.38,9,7,2,24,4,34,0.00,6,Rain,156
2012-11-19,44,38,28,36,33,25,87,77,65,29.54,29.37,29.29,9,9,9,15,9,30,0.00,6,Rain,139
2012-11-20,26,22,17,21,15,12,86,81,74,29.80,29.67,29.59,9,8,2,16,9,21,0.00,8,Snow,344
2012-11-21,19,18,17,18,15,10,93,83,73,30.29,29.90,29.68,9,9,9,16,8,21,0.00,8,Snow,333
2012-11-22,37,27,17,28,21,12,93,80,65,30.41,30.27,30.05,9,7,2,18,6,26,0.00,8,Snow,158
2012-11-23,44,34,24,32,28,25,100,73,61,30.02,29.93,29.87,9,9,9,20,10,26,0.00,5,Rain,148
2012-11-24,33,28,23,30,26,23,100,97,81,30.21,30.11,30.02,9,6,0,8,2,,0.00,7,Fog-Snow,163
2012-11-25,39,31,23,28,26,21,93,82,52,30.35,30.27,30.19,9,9,9,8,4,,0.00,6,Snow,168
2012-11-26,30,24,19,25,22,18,100,92,80,30.35,30.30,30.25,9,9,7,2,1,,0.00,1,,143
2012-11-27,26,22,19,25,21,18,100,95,86,30.27,30.20,30.05,9,6,2,5,1,,0.00,7,,355
2012-11-28,30,26,23,27,25,21,100,95,86,30.04,29.82,29.68,9,4,1,12,3,,0.00,6,Snow,335
2012-11-29,26,22,19,23,19,16,93,88,80,29.70,29.62,29.54,9,9,3,10,7,,0.00,7,Snow,333
2012-11-30,23,20,17,19,18,16,93,88,80,29.61,29.49,29.42,9,9,9,10,8,,0.00,7,,338